Regional Weather Roundup
Issued by NWS

Home | Current Version | Previous Version | Graphics & Text | Print | Product List | Glossary On
Versions: 1 2 3 4 5 6 7 8 9 10 11 12 13 14 15 16 17 18 19 20 21 22 23 24 25 26 27 28 29 30 31 32 33 34 35 36 37 38 39 40 41 42 43 44 45 46 47 48 49 50
000
ASUS45 KABQ 241101
RWRNM
NEW MEXICO REGIONAL WEATHER ROUNDUP
NATIONAL WEATHER SERVICE ALBUQUERQUE NM
400 AM MST FRI NOV 24 2017

NOTE: "FAIR" MEANS FEW OR NO CLOUDS BELOW 12,000 FEET AGL WITH NO
       SIGNIFICANT WEATHER OR OBSTRUCTIONS TO VISION.

      THIS PRODUCT IS RELEASED AS TWO VERSIONS.  ONE VERSION NEAR
      THE TOP OF THE HOUR CONTAINING PRELIMINARY DATA FROM ALBUQUERQUE
      AND OTHER STATIONS.  A FINAL VERSION WITH ADDITIONAL DATA IS
      ISSUED ABOUT 10 MINUTES AFTER THE HOUR.

NMZ501-503-504-510>518-241200-
NORTHWEST PLATEAU/NORTHCENTRAL MOUNTAINS

CITY           SKY/WX    TMP DP  RH WIND       PRES   REMARKS
FARMINGTON     FAIR      29  23  78 NE7       30.15F WCI  22
LOS ALAMOS       N/A    N/A N/A N/A CALM      30.16F
SANTA FE       FAIR      35  27  72 NE8       30.13F WCI  29
TAOS           FAIR      26  20  77 N6        30.18F WCI  19
ANGEL FIRE     FAIR      25  20  81 CALM      30.18F

$$
NMZ402-403-502-505>509-241200-
WESTCENTRAL MOUNTAINS/SOUTHWEST MOUNTAINS

CITY           SKY/WX    TMP DP  RH WIND       PRES   REMARKS
GALLUP         FAIR      22  14  71 NE5       30.21S WCI  16
GRANTS         FAIR      24  17  77 W5        30.20F WCI  18
SILVER CITY    FAIR      39  24  55 NW7       30.14F WCI  34

$$
NMZ407-409-411-412-241200-
SOUTHERN DESERTS

CITY           SKY/WX    TMP DP  RH WIND       PRES   REMARKS
DEMING         FAIR      37  23  56 W5        30.10F WCI  33
LAS CRUCES     FAIR      40  23  50 CALM      30.11S
ALAMOGORDO     FAIR      41  27  56 CALM      30.08F
T OR C         FAIR      43  23  45 CALM      30.10F

$$
NMZ519>523-241200-
CENTRAL VALLEYS/CENTRAL HIGHLANDS

CITY           SKY/WX    TMP DP  RH WIND       PRES   REMARKS
ALBUQUERQUE    FAIR      44  28  53 N3        30.12F
DOUBLE EAGLE   FAIR      34  24  64 CALM      30.14F
MORIARTY ARPT  FAIR      27  22  80 CALM      30.14F
CLINES CORNERS FAIR      39  25  57 NW15      30.13F WCI  31
BELEN          FAIR      36  25  65 NW6       30.12F WCI  31
SOCORRO        FAIR      36  24  64 W5        30.11F WCI  32

$$
NMZ524>526-539-540-241200-
SOUTHCENTRAL MOUNTAINS

CITY           SKY/WX    TMP DP  RH WIND       PRES   REMARKS
RUIDOSO        FAIR      46  23  39 SW3       30.15F

$$
NMZ527>531-241200-
NORTHEAST HIGHLANDS/NORTHEAST PLAINS

CITY           SKY/WX    TMP DP  RH WIND       PRES   REMARKS
LAS VEGAS      FAIR      58  10  15 W20       30.05F
RATON          FAIR      37  26  64 NE8       30.00F WCI  31
CLAYTON        FAIR      42  28  57 CALM      29.87F

$$
NMZ532>537-241200-
EASTCENTRAL PLAINS

CITY           SKY/WX    TMP DP  RH WIND       PRES   REMARKS
SANTA ROSA     FAIR      51  25  35 W9        29.96S
TUCUMCARI      FAIR      44  30  57 SW9       29.89F
CANNON AFB     FAIR      47  29  50 W15       29.95F
CLOVIS AIRPORT FAIR      46  30  53 W8        29.94F

$$
NMZ028-029-538-241200-
SOUTHEAST PLAINS

CITY           SKY/WX    TMP DP  RH WIND       PRES   REMARKS
ROSWELL        FAIR      39  27  62 SW3       29.98F
ARTESIA        FAIR      43  28  56 S6        29.98F
CARLSBAD       FAIR      38  31  76 MISG      29.97F
HOBBS          FAIR      43  30  61 W7        29.99F


$$



USA.gov is the U.S. government's official web portal to all federal, state and local government web resources and services.